Regional Weather Roundup
Issued by NWS

Home | Current Version | Previous Version | Graphics & Text | Print | Product List | Glossary On
Versions: 1 2 3 4 5 6 7 8 9 10 11 12 13 14 15 16 17 18 19 20 21 22 23 24 25 26 27 28 29 30 31 32 33 34 35 36 37 38 39 40 41 42 43 44 45 46 47 48 49 50
000
ASUS43 KLSX 260310
RWRMO

WEATHER SUMMARY FOR MISSOURI
NATIONAL WEATHER SERVICE SPRINGFIELD MO
1000 PM CDT MON JUL 25 2016

NOTE: "FAIR" INDICATES FEW OR NO CLOUDS BELOW 12,000 FEET WITH NO
       SIGNIFICANT WEATHER AND/OR OBSTRUCTIONS TO VISIBILITY.
       CURRENT SKY AND/OR WEATHER CONDITIONS ARE NOT AVAILABLE FOR
       CHILLICOTHE AND FARMINGTON.

MOZ001>031-035>038-043-044-053-054-260400-
...NORTHERN AND WESTERN MISSOURI...

CITY           SKY/WX    TMP DP  RH WIND       PRES   REMARKS
KANSAS CTY INT CLOUDY    80  65  59 E6        30.07R
KANSAS C DTWN  CLOUDY    81  66  60 E5        30.05R
LEE`S SUMMIT   CLOUDY    79  69  71 E3        30.07R
ST JOSEPH      CLOUDY    74  68  81 CALM      30.07R
CHILLICOTHE      N/A     75  71  87 CALM      30.07R
KIRKSVILLE     CLOUDY    71  67  87 CALM      30.07R

$$
MOZ066>068-077>081-088>096-101>105-260400-
...SOUTHWEST MISSOURI...

CITY           SKY/WX    TMP DP  RH WIND       PRES   REMARKS
SPRINGFIELD    CLEAR     77  71  82 NE3       30.04R
JOPLIN         PTCLDY    76  74  93 NE5       30.04R
BRANSON        MOCLDY    77  72  83 CALM      30.06R

$$
MOZ032>034-039>042-045>050-055>058-069>072-260400-
...CENTRAL MISSOURI...

CITY           SKY/WX    TMP DP  RH WIND       PRES   REMARKS
COLUMBIA       CLEAR     73  72  96 N5        30.05R
JEFFERSON CITY CLEAR     76  70  82 N6        30.03R
ROLLA          MOCLDY    74  71  91 N3        30.04R
SEDALIA        MOCLDY    76  71  85 CALM      30.07R
WHITEMAN AFB   CLOUDY    74  74 100 CALM      30.04R
OSAGE BEACH    CLEAR     75  72  90 CALM      30.05R

$$
MOZ051-052-059>065-260400-
...EAST CENTRAL MISSOURI...

CITY           SKY/WX    TMP DP  RH WIND       PRES   REMARKS
ST LOUIS INTL  MOCLDY    80  74  81 N5        30.01R
SPIRIT OF STL  CLOUDY    80  74  81 N5        30.00R
ST CHARLES     PTCLDY    77  76  96 NW3       30.00R

$$
MOZ072>076-082>087-097>100-106>115-260400-
...SOUTH CENTRAL AND SOUTHEAST MISSOURI...

CITY           SKY/WX    TMP DP  RH WIND       PRES   REMARKS
CAPE GIRARDEAU PTCLDY    77  76  96 SW3       29.99R
FARMINGTON     CLOUDY    79  75  87 W3        30.04R
POPLAR BLUFF   CLOUDY    77  76  96 N5        30.00R FOG
WEST PLAINS    CLOUDY    77  71  82 CALM      30.06R

$$




USA.gov is the U.S. government's official web portal to all federal, state and local government web resources and services.